This is the latest recevied weather packets stored in our database for station/object KC5DAQ-27. If no packets are shown the sender has not sent any weather packets the latest 1 day(s).
| Time | Temp. | Humidity | Pressure | Rain* | Wind** | Luminosity | Snow |
|---|---|---|---|---|---|---|---|
| 1777978885 | 21.11° C | 94% | 999.7 hPa | 0.25 mm | 2.68 m/s, 182° | 0 W/m² | - |
| 1777978826 | 21.11° C | 95% | 999.7 hPa | 0.25 mm | 2.68 m/s, 197° | 0 W/m² | - |
| 1777978765 | 21.11° C | 94% | 999.8 hPa | 0.25 mm | 2.68 m/s, 183° | 0 W/m² | - |
| 1777978706 | 21.11° C | 94% | 999.7 hPa | 0.25 mm | 2.24 m/s, 186° | 0 W/m² | - |
| 1777978646 | 21.11° C | 94% | 999.7 hPa | 0.25 mm | 1.79 m/s, 189° | 0 W/m² | - |
| 1777978586 | 21.11° C | 94% | 999.7 hPa | 0.25 mm | 1.79 m/s, 185° | 0 W/m² | - |
| 1777978525 | 21.11° C | 94% | 999.7 hPa | 0.25 mm | 2.24 m/s, 172° | 0 W/m² | - |
| 1777978466 | 21.11° C | 94% | 999.8 hPa | 0 mm | 2.24 m/s, 188° | 0 W/m² | - |
| 1777978405 | 21.11° C | 94% | 999.8 hPa | 0 mm | 1.79 m/s, 183° | 0 W/m² | - |
| 1777978345 | 21.67° C | 94% | 999.8 hPa | 0 mm | 2.24 m/s, 190° | 0 W/m² | - |
| 1777978286 | 21.67° C | 94% | 999.8 hPa | 0 mm | 2.68 m/s, 197° | 0 W/m² | - |
| 1777978225 | 21.67° C | 94% | 999.7 hPa | 0 mm | 2.68 m/s, 190° | 0 W/m² | - |
| 1777978163 | 21.67° C | 94% | 999.6 hPa | 0 mm | 2.68 m/s, 193° | 0 W/m² | - |
| 1777978101 | 21.67° C | 94% | 999.6 hPa | 0 mm | 2.68 m/s, 200° | 0 W/m² | - |
| 1777978040 | 21.67° C | 94% | 999.6 hPa | 0 mm | 2.68 m/s, 196° | 0 W/m² | - |
| 1777977978 | 21.67° C | 94% | 999.6 hPa | 0 mm | 3.13 m/s, 159° | 0 W/m² | - |
| 1777977917 | 21.67° C | 94% | 999.6 hPa | 0 mm | 2.68 m/s, 203° | 0 W/m² | - |
| 1777977856 | 21.67° C | 94% | 999.6 hPa | 0 mm | 2.68 m/s, 179° | 0 W/m² | - |
| 1777977794 | 21.67° C | 94% | 999.6 hPa | 0 mm | 2.68 m/s, 182° | 0 W/m² | - |
| 1777977733 | 21.67° C | 94% | 999.6 hPa | 0 mm | 2.68 m/s, 186° | 0 W/m² | - |
| 1777977669 | 21.67° C | 94% | 999.6 hPa | 0 mm | 2.24 m/s, 197° | 0 W/m² | - |
| 1777977606 | 21.67° C | 94% | 999.7 hPa | 0 mm | 2.24 m/s, 176° | 0 W/m² | - |
| 1777977545 | 21.67° C | 94% | 999.7 hPa | 0 mm | 2.68 m/s, 188° | 0 W/m² | - |
| 1777977483 | 21.67° C | 94% | 999.8 hPa | 0 mm | 2.24 m/s, 183° | 0 W/m² | - |
| 1777977424 | 21.67° C | 94% | 999.7 hPa | 0 mm | 2.24 m/s, 189° | 0 W/m² | - |
* Rain latest hour (hover to see other rain measurements)
** Current wind speed in m/s (hover to see current wind gust speed)